Location: ??
(35.5052°N, 139.7262°E)
Time: 16:53:33
(UTC+00:00)

USA 215 - Pass Details

Date: 20 June 2021
Orbit: 1100 x 1107 km, 123.0° (Epoch: 22 June)

Event Time Altitude Azimuth Distance (km) Brightness Sun altitude
Rises 13:16:43 0° 42° (NE) 3,919 6.5 -27.6°
Reaches altitude 10° 13:19:12 10° 41° (NE) 2,959 5.8 -27.8°
Maximum altitude 13:25:43 79° 316° (NW) 1,123 3.3 -28.3°
Enters shadow 13:29:11 31° 234° (SW) 1,839 4.2 -28.5°
